Regional Weather Roundup
Issued by NWS

Home | Current Version | Previous Version | Text Only | Print | Product List | Glossary On
Versions: 1 2 3 4 5 6 7 8 9 10 11 12 13 14 15 16 17 18 19 20 21 22 23 24 25 26 27 28 29 30 31 32 33 34 35 36 37 38 39 40 41 42 43 44 45 46 47 48 49 50
000
ASUS43 KFSD 221710
RWRSD

WEATHER ROUNDUP FOR SOUTH DAKOTA
NATIONAL WEATHER SERVICE SIOUX FALLS SD
1200 PM CDT MON SEP 22 2014

NOTE: "FAIR" INDICATES FEW OR NO CLOUDS BELOW 12,000 FEET WITH NO
SIGNIFICANT WEATHER AND/OR OBSTRUCTIONS TO VISIBILITY.


SDZ001>005-009-010-012>017-221800-
NORTHWEST AND NORTH CENTRAL SOUTH DAKOTA

CITY           SKY/WX    TMP DP  RH WIND       PRES   REMARKS
BUFFALO          N/A     65  43  44 S14       29.95F
FAITH            N/A     66  45  46 SE20      30.04F
MOBRIDGE       SUNNY    N/A N/A N/A S16       30.08F
$$

SDZ012>016-024>037-041>051-057-063-072>074-221800-
SOUTHWEST AND SOUTH CENTRAL SOUTH DAKOTA

CITY           SKY/WX    TMP DP  RH WIND       PRES   REMARKS
RAPID CTY ARPT SUNNY     69  45  41 S20       30.03F
PIERRE         MOSUNNY   71  46  40 SE15      30.11F
CUSTER         MOSUNNY   69  46  43 CALM      30.12F
ELLSWORTH AFB  SUNNY     71  45  40 S20G26    30.01
PHILIP         PTSUNNY   75  46  35 S16G23    30.06F
PINE RIDGE     MOSUNNY   73  48  41 S23G33    30.08F
WINNER         FAIR      75  44  33 S20       30.16F
$$

SDZ004>011-016>023-039-040-221800-
NORTHEAST SOUTH DAKOTA

CITY           SKY/WX    TMP DP  RH WIND       PRES   REMARKS
ABERDEEN       SUNNY     70  48  45 S10       30.17F
WATERTOWN      SUNNY     69  46  43 SW13      30.21F
SISSETON         N/A     71  48  43 W13       30.18F
$$

SDZ017-020-022-023-036>040-048>070-221800-
SOUTHEAST SOUTH DAKOTA

CITY           SKY/WX    TMP DP  RH WIND       PRES   REMARKS
SIOUX FALLS    MOSUNNY   68  47  46 SW9       30.25F
HURON          SUNNY     70  47  43 MISG      30.20F
CHAMBERLAIN    MOSUNNY   69  49  48 S14       30.18F HAZE
MITCHELL       MOSUNNY   69  49  48 S12       30.23F
YANKTON        MOSUNNY   68  50  52 S8        30.25F
$$

ABBREVIATIONS USED IN REMARKS
   TC - TEMPERATURE IN CELSIUS
  WCI - WIND CHILL INDEX
   HX - HEAT INDEX
  VSB - VISIBILITY



USA.gov is the U.S. government's official web portal to all federal, state and local government web resources and services.